Location: Newark
(48.3453°N, 0.5589°E)
Time: 05:49:06
(UTC+00:00)

A-11 Canister half - Pass Details

Date: 09 December 2019
Orbit: 1517 x 1683 km, 47.2° (Epoch: 22 January)

Event Time Altitude Azimuth Distance (km) Brightness Sun altitude
Rises 20:46:42 0° 284° (WNW) 4,925 12.4 -45.8°
Reaches altitude 10° 20:53:26 10° 253° (WSW) 3,944 11.5 -46.8°
Maximum altitude 20:55:45 11° 239° (WSW) 3,864 11.3 -47.2°
Drops below altitude 10° 20:58:03 10° 226° (SW) 3,940 11.3 -47.6°
Enters shadow 21:02:16 - 204° (SSW) 4,438 11.4 -48.2°
Sets 21:04:50 0° 194° (SSW) 4,908 - -48.6°
